Weather History for Fairfield, IA

Change the Weather History Date:

Wednesday, January 15, 2014

  Actual Average Record
Temperature  
Mean Temperature 19 °F -  
Max Temperature 28 °F 29 °F 59 °F (1990)
Min Temperature 10 °F 10 °F -17 °F (1972)
Degree Days  
Heating Degree Days 46    
Moisture  
Dew Point 8 °F    
Average Humidity 65    
Maximum Humidity 79    
Minimum Humidity 51    
Precipitation  
Precipitation 0.00 in - - ()
Sea Level Pressure  
Sea Level Pressure 30.06 in    
Wind  
Wind Speed 14 mph (West)    
Max Wind Speed 20 mph    
Max Gust Speed 26 mph    
Visibility 10 miles    
Events Snow    
Averages and records for this station are not official NWS values.
T = Trace of Precipitation, MM = Missing Value Source: NWS Daily Summary

Daily Weather History Graph

Daily Weather History Graph

Search for Another Location

Airport:

Trip Planner

Search our weather history database for the weather conditions in past years. The results will help you decide how hot, cold, wet, or windy it might be!

Date:

Astronomy

Jan. 15, 2014 Rise Set
Actual Time 7:30 AM CST 5:04 PM CST
Civil Twilight 7:00 AM CST 5:34 PM CST
Nautical Twilight 6:26 AM CST 6:08 PM CST
Astronomical Twilight 5:53 AM CST 6:41 PM CST
Moon 5:02 PM CST (1/15) 6:46 AM CST (1/15)
Length of Visible Light 10h 34m
Length of Day
9h 33m
Full, 100% of the Moon is Illuminated
Jan 15
Full
Jan 15
Full
Jan 23
Last Quarter
Jan 30
New
Feb 6
First Quarter

Hourly Weather History & Observations

Time (CST) Temp. Windchill Dew Point Humidity Pressure Visibility Wind Dir Wind Speed Gust Speed Precip Events Conditions
12:15 AM 17.6 °F 1.3 °F 10.4 °F 73% 30.10 in 10.0 mi NW 19.6 mph 26.5 mph N/A Snow Light Snow
12:35 AM 17.6 °F 1.7 °F 8.6 °F 68% 30.10 in 10.0 mi NW 18.4 mph 26.5 mph N/A   Mostly Cloudy
12:55 AM 15.8 °F -0.2 °F 8.6 °F 73% 30.10 in 10.0 mi NW 17.3 mph 24.2 mph N/A   Partly Cloudy
1:15 AM 15.8 °F 1.4 °F 8.6 °F 73% 30.12 in 10.0 mi NW 13.8 mph - N/A   Scattered Clouds
1:35 AM 15.8 °F 0.9 °F 8.6 °F 73% 30.12 in 10.0 mi NW 15.0 mph - N/A   Overcast
1:55 AM 15.8 °F -0.6 °F 8.6 °F 73% 30.12 in 10.0 mi NW 18.4 mph 24.2 mph N/A   Overcast
2:15 AM 15.8 °F 0.9 °F 6.8 °F 68% 30.12 in 10.0 mi NW 15.0 mph 24.2 mph N/A Snow Light Snow
2:35 AM 15.8 °F 0.9 °F 6.8 °F 68% 30.13 in 10.0 mi NW 15.0 mph 20.7 mph N/A   Mostly Cloudy
2:55 AM 14.0 °F -0.8 °F 6.8 °F 73% 30.14 in 10.0 mi NW 13.8 mph 21.9 mph N/A   Scattered Clouds
3:15 AM 14.0 °F -0.8 °F 6.8 °F 73% 30.14 in 10.0 mi NW 13.8 mph 21.9 mph N/A   Mostly Cloudy
3:35 AM 14.0 °F -1.4 °F 6.8 °F 73% 30.14 in 10.0 mi NW 15.0 mph 23.0 mph N/A   Mostly Cloudy
3:55 AM 12.2 °F -3.7 °F 6.8 °F 79% 30.14 in 10.0 mi NW 15.0 mph - N/A   Partly Cloudy
4:15 AM 12.2 °F -3.1 °F 5.0 °F 73% 30.14 in 10.0 mi NW 13.8 mph 19.6 mph N/A   Partly Cloudy
4:35 AM 12.2 °F -2.5 °F 5.0 °F 73% 30.15 in 10.0 mi WNW 12.7 mph - N/A   Clear
4:55 AM 12.2 °F -2.5 °F 5.0 °F 73% 30.15 in 10.0 mi NW 12.7 mph - N/A   Clear
5:15 AM 12.2 °F -3.7 °F 5.0 °F 73% 30.15 in 10.0 mi NW 15.0 mph - N/A   Clear
5:35 AM 12.2 °F -1.8 °F 5.0 °F 73% 30.16 in 10.0 mi WNW 11.5 mph 19.6 mph N/A   Partly Cloudy
5:55 AM 12.2 °F -4.3 °F 5.0 °F 73% 30.16 in 10.0 mi NW 16.1 mph - N/A   Partly Cloudy
6:15 AM 12.2 °F -1.8 °F 5.0 °F 73% 30.17 in 10.0 mi WNW 11.5 mph 17.3 mph N/A   Partly Cloudy
6:35 AM 12.2 °F -2.5 °F 5.0 °F 73% 30.17 in 10.0 mi NW 12.7 mph - N/A   Partly Cloudy
6:55 AM 10.4 °F -4.8 °F 5.0 °F 79% 30.18 in 10.0 mi WNW 12.7 mph - N/A   Partly Cloudy
7:15 AM 10.4 °F -4.8 °F 3.2 °F 73% 30.18 in 10.0 mi NW 12.7 mph - N/A   Clear
7:35 AM 10.4 °F -3.3 °F 3.2 °F 73% 30.18 in - NW 10.4 mph - N/A   Partly Cloudy
7:55 AM 10.4 °F -3.3 °F 5.0 °F 79% 30.18 in 10.0 mi NW 10.4 mph - N/A   Clear
8:15 AM 12.2 °F -1.8 °F 5.0 °F 73% 30.18 in 10.0 mi NW 11.5 mph - N/A   Clear
8:35 AM 12.2 °F -2.5 °F 5.0 °F 73% 30.18 in 10.0 mi NW 12.7 mph 19.6 mph N/A   Clear
8:55 AM 12.2 °F -3.7 °F 5.0 °F 73% 30.18 in 10.0 mi NW 15.0 mph - N/A   Mostly Cloudy
9:15 AM 14.0 °F -1.4 °F 5.0 °F 67% 30.19 in 10.0 mi NW 15.0 mph - N/A   Overcast
9:35 AM 14.0 °F -2.5 °F 3.2 °F 62% 30.20 in 10.0 mi NW 17.3 mph - N/A   Overcast
9:55 AM 14.0 °F -0.2 °F 3.2 °F 62% 30.20 in 10.0 mi NW 12.7 mph 19.6 mph N/A   Mostly Cloudy
10:15 AM 14.0 °F -1.4 °F 5.0 °F 67% 30.19 in 10.0 mi WNW 15.0 mph - N/A   Mostly Cloudy
10:35 AM 15.8 °F 1.4 °F 5.0 °F 62% 30.19 in 10.0 mi NNW 13.8 mph - N/A   Mostly Cloudy
10:55 AM 15.8 °F 2.7 °F 5.0 °F 62% 30.19 in 10.0 mi NW 11.5 mph - N/A   Overcast
11:15 AM 15.8 °F 5.1 °F 5.0 °F 62% 30.17 in 10.0 mi WNW 8.1 mph 15.0 mph N/A   Overcast
11:35 AM 15.8 °F 4.2 °F 5.0 °F 62% 30.17 in 10.0 mi WNW 9.2 mph 16.1 mph N/A   Overcast
11:55 AM 17.6 °F 5.7 °F 6.8 °F 63% 30.15 in 10.0 mi West 10.4 mph 16.1 mph N/A   Overcast
12:15 PM 17.6 °F 5.0 °F 6.8 °F 63% 30.14 in 10.0 mi WNW 11.5 mph - N/A   Overcast
12:35 PM 17.6 °F 5.0 °F 6.8 °F 63% 30.13 in 10.0 mi West 11.5 mph - N/A   Overcast
12:55 PM 19.4 °F 6.6 °F 8.6 °F 63% 30.12 in 10.0 mi WSW 12.7 mph - N/A   Overcast
1:15 PM 19.4 °F 8.6 °F 8.6 °F 63% 30.10 in 10.0 mi WSW 9.2 mph - N/A   Overcast
1:35 PM 21.2 °F 9.5 °F 8.6 °F 58% 30.09 in 10.0 mi SW 11.5 mph 18.4 mph N/A   Mostly Cloudy
1:55 PM 19.4 °F 7.9 °F 8.6 °F 63% 30.09 in 10.0 mi WSW 10.4 mph - N/A   Partly Cloudy
2:15 PM 21.2 °F 10.1 °F 10.4 °F 63% 30.08 in 10.0 mi West 10.4 mph - N/A   Mostly Cloudy
2:35 PM 21.2 °F 12.6 °F 10.4 °F 63% 30.06 in 10.0 mi West 6.9 mph 13.8 mph N/A   Scattered Clouds
2:55 PM 23.0 °F 13.9 °F 10.4 °F 59% 30.05 in 10.0 mi SW 8.1 mph - N/A   Clear
3:15 PM 23.0 °F 11.1 °F 10.4 °F 59% 30.05 in 10.0 mi SW 12.7 mph - N/A   Clear
3:35 PM 23.0 °F 13.1 °F 10.4 °F 59% 30.04 in 10.0 mi SSW 9.2 mph - N/A   Clear
3:55 PM 24.8 °F 14.6 °F 10.4 °F 54% 30.02 in 10.0 mi SSW 10.4 mph - N/A   Clear
4:15 PM 24.8 °F 14.6 °F 10.4 °F 54% 30.01 in 10.0 mi South 10.4 mph - N/A   Clear
4:35 PM 24.8 °F 14.0 °F 10.4 °F 54% 30.01 in 10.0 mi SSW 11.5 mph - N/A   Clear
4:55 PM 24.8 °F 14.0 °F 10.4 °F 54% 30.00 in - SSW 11.5 mph - N/A   Scattered Clouds
5:15 PM 23.0 °F 12.4 °F 10.4 °F 59% 30.00 in 10.0 mi SSW 10.4 mph - N/A   Mostly Cloudy
5:35 PM 23.0 °F 14.7 °F 12.2 °F 63% 30.00 in 10.0 mi South 6.9 mph - N/A   Mostly Cloudy
5:55 PM 23.0 °F 13.1 °F 12.2 °F 63% 29.98 in 10.0 mi South 9.2 mph - N/A   Overcast
6:15 PM 24.8 °F 15.3 °F 12.2 °F 59% 29.96 in 10.0 mi South 9.2 mph - N/A   Overcast
6:35 PM 24.8 °F 14.6 °F 12.2 °F 59% 29.95 in 10.0 mi South 10.4 mph - N/A   Overcast
7:15 PM 24.8 °F 14.0 °F 12.2 °F 59% 29.94 in 10.0 mi South 11.5 mph - N/A   Overcast
7:35 PM 24.8 °F 13.4 °F 12.2 °F 59% 29.92 in 10.0 mi South 12.7 mph - N/A   Overcast
7:55 PM 24.8 °F 13.4 °F 12.2 °F 59% 29.91 in 10.0 mi South 12.7 mph 18.4 mph N/A   Overcast
8:15 PM 24.8 °F 13.4 °F 12.2 °F 59% 29.89 in 10.0 mi South 12.7 mph 19.6 mph N/A   Overcast
8:35 PM 24.8 °F 11.9 °F 12.2 °F 59% 29.86 in 10.0 mi South 16.1 mph - N/A   Overcast
8:55 PM 24.8 °F 11.9 °F 12.2 °F 59% 29.85 in 10.0 mi South 16.1 mph - N/A   Mostly Cloudy
9:15 PM 24.8 °F 12.4 °F 14.0 °F 64% 29.85 in 10.0 mi SSW 15.0 mph 23.0 mph N/A   Overcast
9:35 PM 26.6 °F 14.3 °F 12.2 °F 55% 29.85 in 10.0 mi SSW 16.1 mph - N/A   Overcast
9:55 PM 26.6 °F 14.7 °F 12.2 °F 55% 29.84 in 10.0 mi South 15.0 mph 20.7 mph N/A   Overcast
10:15 PM 26.6 °F 14.7 °F 12.2 °F 55% 29.82 in 10.0 mi South 15.0 mph - N/A   Mostly Cloudy
10:35 PM 26.6 °F 13.4 °F 12.2 °F 55% 29.79 in 10.0 mi South 18.4 mph - N/A   Mostly Cloudy
10:55 PM 26.6 °F 13.4 °F 12.2 °F 55% 29.79 in 10.0 mi SSW 18.4 mph - N/A   Overcast
11:15 PM 28.4 °F 15.8 °F 12.2 °F 51% 29.76 in 10.0 mi SSW 18.4 mph 26.5 mph N/A   Overcast
11:35 PM 28.4 °F 15.4 °F 14.0 °F 55% 29.74 in 10.0 mi SSW 19.6 mph 25.3 mph N/A   Overcast
11:55 PM 26.6 °F 13.8 °F 15.8 °F 64% 29.74 in 10.0 mi SSW 17.3 mph 24.2 mph N/A   Mostly Cloudy